Regional Weather Roundup
Issued by NWS State College, PA

Home | Current Version | Previous Version | Graphics & Text | Print | Product List | Glossary Off
Versions: 1 2 3 4 5 6 7 8 9 10 11 12 13 14 15 16 17 18 19 20 21 22 23 24 25 26 27 28 29 30 31 32 33 34 35 36 37 38 39 40 41 42 43 44 45 46 47 48 49 50

000
ASUS41 KCTP 050810
RWRCTP

REGIONAL WEATHER ROUNDUP
NATIONAL WEATHER SERVICE STATE COLLEGE PA
400 AM EDT WED AUG 05 2015

Note: "fair" indicates few or no clouds below 12,000 feet with no
significant weather and/or obstructions to visibility.

* = STATION THAT DOES NOT REPORT PRECIPITATION /E.G. RAIN...SNOW...ETC/
    THUNDER OR FOG.

PAZ002>004-007>009-013>016-020>023-029>032-050900-
WESTERN PENNSYLVANIA

CITY           SKY/WX    TMP DP  RH WIND       PRES   REMARKS
ERIE           CLEAR     62  58  86 S3        29.96S
MEADVILLE      CLEAR     62  56  80 SW3       29.98S
FRANKLIN*      CLEAR     57  52  82 SW5       30.00R
NEW CASTLE     FAIR      56  56 100 CALM      30.00R
BEAVER COUNTY  NOT AVBL
BUTLER*        PTCLDY    57  55  94 CALM      30.01S
PITTSBURGH INT PTCLDY    64  56  75 CALM      29.99F
PITTSBURGH     PTCLDY    66  53  63 SW6       29.98F
INDIANA*       MOCLDY    59  57  94 CALM      30.02F
LATROBE        NOT AVBL
WASHINGTON CO* NOT AVBL
$$

PAZ004>006-010>012-017>019-024>028-033>037-041-042-045-046-049>053-050900-
CENTRAL PENNSYLVANIA

CITY           SKY/WX    TMP DP  RH WIND       PRES   REMARKS
BRADFORD       MOCLDY    53  50  89 CALM      29.99S
DUBOIS         CLEAR     60  54  80 W3        29.99R
CLEARFIELD     CLEAR     56  54  93 SW5       29.99S
JOHNSTOWN      MOCLDY    62  52  69 SW5       30.02S
ALTOONA        MOCLDY    62  56  80 SW6       30.00R
STATE COLLEGE  PTCLDY    58  55  87 CALM      29.98S
WILLIAMSPORT   CLEAR     60  56  86 NW3       29.94R
SELINSGROVE    CLEAR     56  54  93 CALM      29.95S
FT INDIANTOWN  PTCLDY    58  55  91 NE2       29.94S
CAPITAL CITY   PTCLDY    65  56  72 W3        29.94S
HARRISBURG     MOCLDY    68  59  73 N5        29.93S
YORK           MOCLDY    62  59  90 CALM      29.94S
$$

PAZ038>040-043-044-047-048-054-055-060>062-067>071-050900-
EASTERN PENNSYLVANIA

CITY           SKY/WX    TMP DP  RH WIND       PRES   REMARKS
SCRANTON       CLEAR     62  56  80 E3        29.94S
MOUNT POCONO   CLEAR     54  52  93 CALM      29.98R
ALLENTOWN      CLEAR     61  58  90 NW3       29.92F
QUAKERTOWN*    SUNNY     57  57 100 CALM      29.94S
READING        PTCLDY    64  58  80 CALM      29.93R
LANCASTER      PTCLDY    63  60  90 CALM      29.93F
COATESVILLE    MOSUNNY   66  57  72 CALM      29.95S
POTTSTOWN      CLEAR     61  59  93 CALM      29.95R
BLUE BELL      PTCLDY    63  61  94 CALM      29.92R
DOYLESTOWN     CLEAR     61  56  83 CALM      29.92S
WILLOW GROVE   NOT AVBL
NORTH PHILA    CLOUDY    72  54  53 CALM      29.93R
PHILADELPHIA   CLOUDY    76  65  68 SW7       29.92S
$$



USA.gov is the U.S. government's official web portal to all federal, state and local government web resources and services.